User: anonymous   Login
Location: Geroldsau
(48.7259°N, 8.2466°E)
Time: 19:20:18
(UTC+00:00)
Language:

IRIDIUM 33 DEB - Orbit

View from above orbital plane
View from above orbital plane
View from above satellite
View from above satellite

Ground track
Ground track

The orbit data is extracted from the following two-line orbital elements,

1 34086U 97051CV  22024.46561847  .00002374  00000-0  65764-3 0  9991
2 34086  86.3822 294.6004 0020117  97.9469 315.3161 14.46153541678603
Epoch (UTC): 24 January 2022 11:10:29
Eccentricity: 0.0020117
inclination: 86.3822°
perigee height: 724 km
apogee height: 752 km
right ascension of ascending node: 294.6004°
argument of perigee: 97.9469°
revolutions per day: 14.46153541
mean anomaly at epoch: 315.3161°
orbit number at epoch: 67860

The dashed part of the orbit path shows where the satellite is in the earth's shadow,  

DLR